SCP
0 0 0 0 0 0 0 0 0 0 0 0 0 0 0 0 0 0 0 0 0 0 0 0 -0 -0 -0 -0 -0 0 0 0 0 0 0 0 0 0 0 0 0 0 0 0
0 0 0 0 0 0 0 0 0 0 0 0 0 0 0 0 0 0 0 0 0 0 0 0 0 0 0 0 0 0 0 0 0 0 0 0 0 0 0 0 0 0 0 0
0 0 0 0 0 0 0 0 0 0 0 0 0 0 0 0 0 0 0 0 0 0 0 0 0 0 0 0 0 0 0 0 0 0 0 0 0 0 0 0 0 0 0 0
0 0 0 0 0 0 0 0 0 0 0 0 0 0 0 0 0 0 0 0 0 0 0 0 0 0 0 0 0 0 0 0 0 0 0 0 0 0 0 0 0 0 0 0
0 0 0 0 0 0 0 0 0 0 0 0 0 0 0 0 0 0 0 0 0 0 0 0 0 0 0 0 0 0 0 0 0 0 0 0 0 0 0 0 0 0 0 0
0 0 0 0 0 0 0 0 0 0 0 0 0 0 0 0 0 0 0 0 0 0 0 0 0 0 0 0 0 0 0 0 0 0 0 0 0 0 0 0 0 0 0 0
0 0 0 0 0 0 0 0 0 0 0 0 0 0 0 0 0 0 0 0 0 0 0 0 0 0 0 0 0 0 0 0 0 0 0 0 0 0 0 0 0 0 0 0
0 0 0 0 0 0 0 0 0 0 0 0 0 0 0 0 0 0 0 0 0 0 0 0 0 0 0 0 0 0 0 0 0 0 0 0 0 0 0 0 0 0 0 0
0 0 0 0 0 0 0 0 0 0 0 0 0 0 0 0 0 0 0 0 0 0 0 0 0 0 0 0 0 0 0 0 0 0 0 0 0 0 0 0 0 0 0 0
0 0 0 0 0 0 0 0 0 0 0 0 0 0 0 0 0 0 0 0 0 0 0 0 0 0 0 0 0 0 0 0 0 0 0 0 0 0 0 0 0 0 0 0
0 0 0 0 0 0 0 0 0 0 0 0 0 0 0 0 0 0 0 0 0 0 0 0 0 0 0 0 0 0 0 0 0 0 0 0 0 0 0 0 0 0 0 0
0 0 0 0 0 0 0 0 0 0 0 0 0 0 0 0 0 0 0 0 0 0 0 0 0 0 0 0 0 0 0 0 0 0 0 0 0 0 0 0 0 0 0 0
0 0 0 0 0 0 0 0 0 0 0 0 0 0 0 0 0 0 0 0 0 0 0 0 0 0 0 0 0 0 0 0 0 0 0 0 0 0 0 0 0 0 0 0
0 0 0 0 0 0 0 0 0 0 0 0 0 0 0 0 0 0 0 0 0 0 0 0 0 0 0 0 0 0 0 0 0 0 0 0 0 0 0 0 0 0 0 0
0 0 0 0 0 0 0 0 0 0 0 0 0 0 0 0 0 0 0 0 0 0 0 0 0 0 0 0 0 0 0 0 0 0 0 0 0 0 0 0 0 0 0 0
0 0 0 0 0 0 0 0 0 0 0 0 0 0 0 0 0 0 0 0 0 0 0 0 0 0 0 0 0 0 0 0 0 0 0 0 0 0 0 0 0 0 0 0
0 0 0 0 0 0 0 0 0 0 0 0 0 0 0 0 0 0 0 0 0 0 0 0 0 0 0 0 0 0 0 0 0 0 0 0 0 0 0 0 0 0 0 0
0 0 0 0 0 0 0 0 0 0 0 0 0 0 0 0 0 0 0 0 0 0 0 0 0 0 0 0 0 0 0 0 0 0 0 0 0 0 0 0 0 0 0 0
0 0 0 0 0 0 0 0 0 0 0 0 0 0 0 0 0 0 0 0 0 0 0 0 0 0 0 0 0 0 0 0 0 0 0 0 0 0 0 0 0 0 0 0
0 0 0 0 0 0 0 0 0 0 0 0 0 0 0 0 0 0 0 0 0 0 0 0 0 0 0 0 0 0 0 0 0 0 0 0 0 0 0 0 0 0 0 0
0 0 0 0 0 0 0 0 0 0 0 0 0 0 0 0 0 0 0 0 0 0 0 0 0 0 0 0 0 0 0 0 0 0 0 0 0 0 0 0 0 0 0 0
0 0 0 0 0 0 0 0 0 0 0 0 0 0 0 0 0 0 0 0 0 0 0 0 0 0 0 0 0 0 0 0 0 0 0 0 0 0 0 0 0 0 0 0
0 0 0 0 0 0 0 0 0 0 0 0 0 0 0 0 0 0 0 0 0 0 0 0 0 0 0 0 0 0 0 0 0 0 0 0 0 0 0 0 0 0 0 0
-0 0 0 0 0 0 0 0 0 0 0 0 0 0 0 0 0 0 0 0 0 0 0 0 0 0 0 0 0 0 0 0 0 0 0 0 0 0 0 0 0 0 0 0
0 0 0 0 0 0 0 0 0 0 0 0 0 0 0 0 0 0 0 0 0 0 0 0 0 0 0 0 0 0 0 0 0 0 0 0 0 0 0 0 0 0 0 0
0 0 0 0 0 0 0 0 0 0 0 0 0 0 0 0 0 0 0 0 0 0 0 0 0 0 0 0 0 0 0 0 0 0 0 0 0 0 0 0 0 0 0 0
0 0 0 0 0 0 0 0 0 0 0 0 0 0 0 0 0 0 0 0 0 0 0 0 0 0 0 0 0 0 0 0 0 0 0 0 0 0 0 0 0 0 0 0
Wind_Speed
4 4 2 2 3 2 3 4 4 3 3 4 4 4 3 2 1 1 1 2 3 3 3 4 5 6 5 6 6 6 7 7 7 7 6 7 7 7 7 8 8 8 8 8
3 2 2 3 3 2 3 2 3 2 4 3 2 3 2 3 2 1 1 1 1 2 3 3 4 4 5 5 5 5 6 6 6 6 6 7 7 7 7 7 7 7 8 8
4 5 3 5 5 4 3 3 4 5 4 3 3 5 5 5 4 3 3 2 1 1 1 2 2 2 3 4 4 5 5 5 5 6 6 6 6 7 7 7 7 7 7 7
2 5 3 5 1 3 3 3 5 4 3 5 5 3 3 4 5 5 3 2 2 1 1 2 2 2 3 3 4 4 5 5 6 6 6 6 6 6 6 5 6 6 7 7
1 2 7 6 2 3 2 5 5 6 4 3 3 2 3 4 5 5 4 3 2 2 1 1 2 2 3 4 4 5 5 6 6 6 6 6 6 6 5 5 5 5 6 6
1 1 5 4 1 2 2 5 4 6 6 6 6 2 5 4 5 4 3 2 2 1 0 1 2 2 2 3 4 4 5 5 5 5 5 6 6 6 5 5 6 6 7 6
3 4 9 6 2 3 2 5 2 6 7 8 8 6 3 4 4 3 3 2 2 1 0 1 1 1 2 3 4 5 5 5 5 5 5 6 5 5 6 6 6 6 7 7
4 4 9 3 5 6 8 3 2 5 6 7 6 3 3 3 3 3 3 2 2 1 1 1 1 1 2 4 5 5 5 5 5 6 5 5 5 6 6 6 6 7 7 7
9 9 5 5 8 5 3 3 4 4 5 6 5 4 4 4 4 3 3 2 2 1 1 1 1 1 2 4 5 5 5 6 6 7 6 5 5 7 6 5 5 6 6 7
6 10 7 7 7 6 5 5 4 4 5 6 6 5 5 4 3 3 2 2 1 1 1 2 2 2 3 4 4 4 5 6 6 6 6 6 5 5 5 6 6 7 8 8
7 9 7 7 7 7 5 5 4 4 5 6 6 5 5 4 4 3 2 1 1 1 2 3 3 3 4 4 4 4 5 6 6 6 6 6 6 5 7 6 8 10 8 8
9 8 6 6 4 4 5 6 6 5 4 4 6 6 5 4 4 3 2 2 1 1 2 2 3 3 4 3 3 4 6 6 5 5 6 6 7 8 11 13 17 18 18 16
7 4 5 6 4 4 5 6 5 6 6 5 4 5 5 4 3 3 2 2 2 2 2 2 2 3 4 4 4 4 5 7 6 6 6 7 7 8 10 11 15 17 18 19
6 4 5 5 5 4 4 3 3 3 3 4 4 4 4 3 3 3 3 2 2 1 1 2 2 3 4 4 5 5 6 7 7 6 6 7 7 8 8 10 11 9 11 17
7 7 7 4 2 2 3 4 4 4 4 3 3 4 5 4 4 3 2 1 1 0 1 2 2 4 4 4 5 6 6 5 6 6 6 7 7 8 8 9 10 10 9 10
4 4 4 4 5 4 4 5 5 6 5 4 4 4 4 4 3 2 2 1 1 1 2 2 3 4 4 4 5 5 5 10 10 7 7 7 7 8 8 9 9 9 9 9
4 5 5 5 6 6 6 6 6 6 5 5 5 5 4 4 3 2 1 1 1 2 2 2 3 4 4 4 5 4 5 7 12 9 7 7 8 8 8 9 9 9 9 11
9 9 7 7 7 6 5 5 5 5 5 5 5 5 5 4 4 3 2 1 1 2 2 2 3 4 4 5 5 4 5 5 6 7 7 8 8 8 8 9 10 11 9 10
6 7 7 7 6 6 5 5 5 5 5 5 6 5 4 4 3 2 1 1 2 3 3 3 6 4 4 6 7 4 5 6 7 7 8 11 10 8 8 9 9 10 10 9
3 3 4 4 4 4 5 4 4 4 5 5 5 4 3 3 3 2 2 3 3 3 3 4 3 3 4 6 7 3 4 6 7 7 8 8 8 8 8 9 10 10 9 9
2 2 3 3 3 3 4 5 5 5 5 6 6 5 4 3 3 3 2 3 3 2 3 4 3 3 4 6 6 3 4 5 6 7 7 8 8 8 9 9 9 10 9 9
2 3 3 4 4 3 3 4 4 5 5 5 4 4 4 3 3 3 4 4 2 3 2 2 2 6 8 7 2 3 4 5 6 6 6 7 8 8 9 9 9 9 9 9
3 3 4 4 4 4 3 3 4 5 5 6 6 5 5 4 3 3 3 2 2 4 2 2 5 9 10 4 2 4 5 5 6 6 7 7 8 8 8 9 9 9 8 9
3 3 3 3 4 4 4 4 4 4 4 4 4 4 4 3 2 3 2 3 4 5 2 4 8 9 8 2 3 4 5 5 6 6 7 7 7 7 8 8 9 8 8 10
4 4 4 5 5 5 5 4 4 4 4 3 3 4 3 3 3 2 2 2 4 4 2 5 8 8 4 3 4 5 5 6 7 7 6 6 6 7 7 8 8 8 8 8
5 5 5 5 5 4 4 4 4 4 4 3 3 3 3 2 2 2 2 2 3 4 2 2 3 5 3 4 4 5 5 7 7 6 6 7 7 8 8 8 10 8 8 8
4 4 3 3 3 4 5 5 5 5 5 5 4 3 3 3 2 2 2 2 2 2 2 2 3 3 3 4 5 5 5 5 6 6 6 6 6 7 8 9 8 8 8 8
Wind_Direction
254 262 248 255 266 217 194 209 209 231 224 236 210 198 195 183 162 105 49 29 26 20 11 10 13 13 15 15 15 19 26 28 22 15 16 17 16 14 12 13 10 4 2 359
308 306 289 283 276 239 216 203 207 221 261 237 171 151 172 190 184 186 243 301 346 11 14 6 0 359 3 6 5 13 22 16 6 7 9 9 6 4 5 4 0 1 359 352
299 311 333 291 251 208 204 203 185 206 226 169 172 195 205 204 200 209 226 246 272 306 318 318 324 340 353 349 355 9 11 4 1 360 0 356 354 357 355 351 350 350 347 346
313 1 285 258 251 190 203 244 214 217 208 189 196 198 210 196 194 207 211 216 231 252 292 312 332 347 349 358 3 3 360 353 350 350 348 345 349 348 340 335 336 332 330 329
49 320 285 293 237 182 191 282 220 206 206 173 132 84 283 217 196 201 199 198 204 212 228 314 334 340 357 359 356 354 347 340 336 337 336 335 333 326 319 319 319 315 313 316
136 271 262 266 217 174 96 292 241 187 186 166 139 177 257 199 177 184 175 170 173 163 108 349 323 347 4 344 341 333 324 320 319 321 320 317 312 309 309 310 306 309 308 306
193 240 266 257 195 123 173 255 225 183 182 171 187 205 204 152 159 162 160 160 146 135 155 281 305 346 340 329 317 308 309 310 311 311 308 302 302 301 305 306 307 305 301 298
177 218 259 208 150 188 220 242 194 187 185 186 201 181 158 164 167 160 156 154 151 156 248 296 322 347 324 311 301 305 310 312 311 310 308 313 307 304 303 304 306 305 302 301
200 223 243 204 211 227 201 213 212 195 195 181 184 193 185 181 180 177 176 176 173 173 254 308 314 310 303 302 313 319 319 315 310 310 306 305 305 306 307 304 302 303 302 302
260 262 253 243 243 245 218 221 222 202 186 175 187 192 187 184 185 185 185 182 168 156 290 301 308 312 296 304 315 316 312 309 306 307 306 304 301 298 298 297 297 300 302 302
259 272 291 273 236 230 221 215 208 197 189 187 183 190 188 188 192 190 184 177 170 200 263 290 308 309 308 310 317 315 309 307 308 305 302 303 300 293 297 281 287 298 297 296
232 233 218 256 264 211 202 209 199 186 187 188 185 189 182 187 187 177 177 178 194 229 265 285 299 306 313 318 319 316 316 316 313 311 309 309 309 308 305 305 306 304 301 299
237 251 230 259 269 222 212 213 199 191 186 184 183 177 172 174 171 164 171 184 206 236 266 287 306 313 317 321 320 315 312 313 311 313 314 314 313 312 311 312 309 307 306 306
241 242 259 244 240 227 204 193 171 166 171 169 165 156 152 153 153 167 189 204 208 228 272 292 309 309 312 319 321 318 313 313 315 307 307 305 305 305 305 307 310 308 308 308
243 221 234 256 253 212 172 152 154 169 164 158 152 153 156 162 175 185 185 172 162 269 294 307 309 307 316 321 322 320 316 311 308 304 303 302 303 303 302 302 302 303 305 307
267 257 241 235 226 211 186 183 186 193 181 174 170 171 169 164 160 156 154 151 176 273 292 298 299 306 316 318 320 315 309 314 318 312 308 306 304 304 305 304 304 304 304 307
227 238 222 225 222 217 208 204 196 190 181 181 182 166 151 145 149 173 199 212 228 259 279 290 302 312 316 315 310 306 304 308 316 314 306 306 306 305 305 306 305 304 304 306
223 227 220 216 212 212 212 200 189 181 184 181 159 151 158 169 190 210 220 233 290 292 284 294 302 311 315 314 309 301 301 305 308 308 307 306 305 304 306 305 306 305 305 308
237 231 226 215 205 195 194 192 185 175 164 156 157 168 177 186 193 199 193 210 255 274 276 285 309 320 309 306 314 299 302 306 309 309 307 309 312 308 307 306 306 306 307 309
241 222 205 194 181 176 179 175 163 159 161 156 154 160 175 192 188 189 204 233 237 238 257 282 300 301 299 297 308 297 302 305 308 308 308 307 307 308 308 308 309 308 309 309
228 201 178 168 164 163 166 162 159 165 164 161 167 179 188 192 186 188 209 253 252 240 264 295 307 295 292 300 311 304 301 303 305 305 306 307 307 307 307 308 309 310 310 311
209 188 178 164 155 160 163 159 161 162 161 166 172 172 174 190 202 217 227 234 249 279 288 269 279 293 305 316 319 306 302 301 301 302 302 304 305 306 307 309 310 310 309 308
214 195 184 179 172 164 152 161 169 169 173 178 181 183 190 199 197 208 248 239 238 278 292 266 294 306 317 333 313 301 299 299 299 299 301 301 302 303 304 305 305 305 305 305
208 197 188 168 147 156 183 194 180 177 178 182 187 185 182 193 219 221 226 258 277 290 283 293 307 313 325 330 301 296 295 295 295 294 295 298 300 302 302 302 302 302 302 303
205 195 184 173 183 200 198 177 166 177 181 188 192 191 190 191 203 214 214 235 269 291 288 299 308 317 323 298 293 293 295 293 295 300 301 304 302 301 300 300 301 301 301 301
207 205 204 205 203 193 176 171 181 188 185 194 204 198 191 191 194 196 210 231 252 282 287 282 291 302 294 290 291 293 294 298 305 305 299 298 298 299 299 301 302 301 299 298
204 204 199 207 210 193 182 183 190 196 194 194 203 196 188 187 190 201 213 228 246 260 267 272 277 281 286 290 292 293 293 294 295 296 297 296 295 296 297 298 298 298 299 299